STARLINK-11238, 60928

Orbit data source: Space-Track

STARLINK-11238, 60928 is a payload satellite owned by SpaceX/Seattle (US) in LEO that was launched on Sat, 31 Aug 2024 UTC via an FALCON 9 launch vehicle from the Air Force Western Test Range (AFWTR). Payloads include a variety of satellites, spacecraft, and rockets equipped with specific instruments for various scientific and technological missions. These include communications satellites like Starlink; space stations such as the ISS; scientific satellites like the Hubble; Earth observation satellites from companies like Planet Labs, Umbra, and HawkEye 360; GPS; miniature CubeSats for education and research; and military/defense satellites.

Loading next visibility...
STARLINK-11238 details
Identifier
60928, 2024-155E
Orbit
LEO
Last TLE update15 hours ago
Origin
Flag of USSpaceX/Seattle (US)
ManufacturerSpaceX/Seattle
MissionOperational spacecraft
Bus & MotorSTARLINK V2M, Unknown motor
Mass730 kg wet, ~700 kg dry
Launch date (UTC)
2024-08-31 (5 months ago)
Launch vehicle
FALCON 9
Launch site
Air Force Western Test Range (AFWTR)
Object type
Payload
Rocket body
Debris
Shape & HBRUnknown
Radar Cross SectionLarge (>1 m²)

Expand to show TLE details & history

TLE from 15 hours ago
0 STARLINK-11238
1 60928U 24155E   25015.00989834 -.00000519  00000-0  57409-6 0  9993
2 60928  53.1602 245.2202 0001067  89.9315 270.1825 15.69705862 22693
Epoch: 2025-01-15T00:14Z
Definitive object data (Epoch: 2025-01-15T00:14:15.216Z)
Latitude-0.00004°
Longitude126.94838°
Altitude360.651 km
Speed7.694 km/s
True Right ascension16h 20m 52s
True Declination0° 00' 00"
Sunlit
Object was in daylight at TLE epoch
Visualization TLE readout
Latitude-18.70057°
Longitude-41.44852°
Altitude365.152 km
Speed7.69 km/s
Apparent Right ascension04h 26m 00s
Apparent Declination-29° 22' 37"
Sunlit
Object is in full shadow
Visualization observer readout
Local Sidereal Time15:31:56
Azimuth309.421° NW
Elevation-74.713°
Doppler factor1
Orbital elements
Apogee altitude360.718 km
Perigee altitude359.28 km
Semi-major axis6,738.136 km
Eccentricity0.0001067
Inclination53.1602°
RAAN245.2202°
Arg. of periapsis89.9315°
True anomaly270.17027°
Mean anomaly270.1825°
Eccentric anomaly270.17639°
Mean motion3.92404 °/min
BSTAR5.7409e-7
Orbital period91.74 mins
Loading maneuver chart data...
Loading historical data...
Loading historical data...
Loading historical data...
Loading historical data...
Loading historical data...
Loading historical data...
Loading historical data...

STARLINK-11238 Visibility forecast

Observer location: undefined°, undefined

Span
Click to sort rows by Start time (UTC) header in descending order
Start Az.
Max El. time (UTC)
Max El. Az.
Max El.
End time (UTC)
End Az.
4 mins2025-01-15 17:13:10.434Z176.605° S2025-01-15 17:15:10.434Z115.387° SE21.961°2025-01-15 17:17:10.434Z74.53° E
4 mins2025-01-16 01:13:10.434Z278.594° WNW2025-01-16 01:14:10.434Z246.37° WSW29.344°2025-01-16 01:17:10.434Z157.706° S
|